When you browse on this site, cookies collect data to enhance your experience and personalize the content and advertising you see.
Visit our Privacy Policy to learn more. By continuing to use the site, you agree to this use of cookies and data.

Meteo pe oră la Al Hudaydah

Astăzi, 7 August, Vineri

Timp Temperatura Precipitaţii Vânt Presiune Umiditate
00:00 +33°C° 0.4 mm 1 m/s 753 mmHg 64%
01:00 +32°C° 0.7 mm 2 m/s 752 mmHg 66%
02:00 +32°C° 0.7 mm 4 m/s 752 mmHg 69%
03:00 +30°C° 0 mm 3 m/s 751 mmHg 73%
04:00 +32°C° 0.2 mm 4 m/s 751 mmHg 70%
05:00 +32°C° 0.2 mm 4 m/s 752 mmHg 67%
06:00 +32°C° 0.2 mm 5 m/s 752 mmHg 64%
07:00 +33°C° 0.6 mm 6 m/s 752 mmHg 61%
08:00 +34°C° 0.6 mm 7 m/s 752 mmHg 58%
09:00 +35°C° 0 mm 7 m/s 752 mmHg 56%
10:00 +37°C° 0 mm 8 m/s 752 mmHg 53%
11:00 +38°C° 0 mm 9 m/s 752 mmHg 51%
12:00 +39°C° 0 mm 10 m/s 751 mmHg 49%
13:00 +39°C° 0 mm 10 m/s 751 mmHg 48%
14:00 +39°C° 0 mm 10 m/s 750 mmHg 48%
15:00 +39°C° 0 mm 9 m/s 749 mmHg 48%
16:00 +38°C° 0 mm 9 m/s 750 mmHg 51%
17:00 +37°C° 0 mm 8 m/s 750 mmHg 54%
18:00 +37°C° 0 mm 8 m/s 750 mmHg 56%
19:00 +35°C° 0 mm 7 m/s 750 mmHg 60%
20:00 +35°C° 0 mm 7 m/s 751 mmHg 63%
21:00 +34°C° 0 mm 6 m/s 751 mmHg 66%
22:00 +34°C° 0.1 mm 5 m/s 751 mmHg 67%
23:00 +33°C° 0.1 mm 5 m/s 751 mmHg 69%

Mâine, 8 August, Sâmbătă

Timp Temperatura Precipitaţii Vânt Presiune Umiditate
00:00 +33°C° 0.1 mm 4 m/s 751 mmHg 71%
01:00 +33°C° 0 mm 4 m/s 750 mmHg 72%
02:00 +33°C° 0 mm 4 m/s 750 mmHg 73%
03:00 +33°C° 0 mm 3 m/s 750 mmHg 74%
04:00 +33°C° 0.1 mm 3 m/s 750 mmHg 74%
05:00 +33°C° 0.1 mm 3 m/s 750 mmHg 75%
06:00 +31°C° 0.1 mm 3 m/s 750 mmHg 75%
07:00 +33°C° 0 mm 3 m/s 750 mmHg 69%
08:00 +35°C° 0 mm 4 m/s 750 mmHg 62%
09:00 +36°C° 0 mm 4 m/s 750 mmHg 56%
10:00 +36°C° 0 mm 5 m/s 750 mmHg 53%
11:00 +37°C° 0 mm 5 m/s 750 mmHg 51%
12:00 +39°C° 0 mm 6 m/s 750 mmHg 48%
13:00 +39°C° 0 mm 6 m/s 749 mmHg 48%
14:00 +39°C° 0 mm 6 m/s 749 mmHg 48%
15:00 +39°C° 0 mm 7 m/s 748 mmHg 48%
16:00 +39°C° 0 mm 6 m/s 748 mmHg 50%
17:00 +38°C° 0 mm 6 m/s 748 mmHg 52%
18:00 +36°C° 0 mm 5 m/s 749 mmHg 55%
19:00 +36°C° 0 mm 5 m/s 749 mmHg 59%
20:00 +35°C° 0 mm 5 m/s 749 mmHg 63%
21:00 +34°C° 0 mm 5 m/s 750 mmHg 67%
22:00 +34°C° 0 mm 4 m/s 750 mmHg 68%
23:00 +34°C° 0 mm 4 m/s 750 mmHg 69%

Poimâine, 9 August, Duminică

Timp Temperatura Precipitaţii Vânt Presiune Umiditate
00:00 +34°C° 0 mm 3 m/s 749 mmHg 70%
01:00 +34°C° 0 mm 3 m/s 749 mmHg 71%
02:00 +32°C° 0 mm 2 m/s 749 mmHg 72%
03:00 +32°C° 0 mm 2 m/s 748 mmHg 73%
04:00 +32°C° 0.1 mm 2 m/s 749 mmHg 73%
05:00 +32°C° 0.1 mm 2 m/s 749 mmHg 73%
06:00 +32°C° 0.1 mm 2 m/s 749 mmHg 74%
07:00 +34°C° 0 mm 2 m/s 749 mmHg 67%
08:00 +35°C° 0 mm 3 m/s 750 mmHg 60%
09:00 +36°C° 0 mm 3 m/s 750 mmHg 53%
10:00 +37°C° 0 mm 4 m/s 750 mmHg 50%
11:00 +39°C° 0 mm 6 m/s 750 mmHg 48%
12:00 +40°C° 0 mm 7 m/s 749 mmHg 45%
13:00 +40°C° 0 mm 7 m/s 749 mmHg 43%
14:00 +40°C° 0 mm 7 m/s 749 mmHg 42%
15:00 +40°C° 0 mm 7 m/s 748 mmHg 40%
16:00 +40°C° 0 mm 7 m/s 748 mmHg 42%
17:00 +39°C° 0 mm 7 m/s 748 mmHg 43%
18:00 +38°C° 0 mm 7 m/s 748 mmHg 45%
19:00 +36°C° 0 mm 7 m/s 749 mmHg 50%
20:00 +35°C° 0 mm 7 m/s 750 mmHg 54%
21:00 +35°C° 0 mm 6 m/s 750 mmHg 59%
22:00 +34°C° 0 mm 6 m/s 750 mmHg 61%
23:00 +34°C° 0 mm 5 m/s 750 mmHg 63%

10 August, Luni

Timp Temperatura Precipitaţii Vânt Presiune Umiditate
00:00 +34°C° 0 mm 4 m/s 750 mmHg 65%
01:00 +34°C° 0 mm 4 m/s 750 mmHg 66%
02:00 +33°C° 0 mm 4 m/s 749 mmHg 67%
03:00 +33°C° 0 mm 4 m/s 749 mmHg 68%
04:00 +33°C° 0 mm 3 m/s 749 mmHg 69%
05:00 +33°C° 0 mm 3 m/s 749 mmHg 70%
06:00 +32°C° 0 mm 2 m/s 750 mmHg 71%
07:00 +34°C° 0 mm 3 m/s 750 mmHg 65%
08:00 +35°C° 0 mm 3 m/s 750 mmHg 59%
09:00 +36°C° 0 mm 4 m/s 751 mmHg 54%
10:00 +37°C° 0 mm 4 m/s 751 mmHg 50%
11:00 +39°C° 0 mm 5 m/s 750 mmHg 47%
12:00 +40°C° 0 mm 5 m/s 750 mmHg 43%
13:00 +40°C° 0 mm 6 m/s 750 mmHg 43%
14:00 +40°C° 0 mm 7 m/s 749 mmHg 43%
15:00 +40°C° 0 mm 8 m/s 749 mmHg 43%
16:00 +39°C° 0 mm 8 m/s 749 mmHg 46%
17:00 +38°C° 0 mm 9 m/s 749 mmHg 50%
18:00 +37°C° 0 mm 9 m/s 749 mmHg 54%
19:00 +37°C° 0 mm 9 m/s 750 mmHg 56%
20:00 +35°C° 0 mm 9 m/s 750 mmHg 58%
21:00 +34°C° 0 mm 9 m/s 751 mmHg 61%
22:00 +34°C° 0 mm 8 m/s 750 mmHg 61%
23:00 +34°C° 0 mm 7 m/s 750 mmHg 61%

11 August, Marţi

Timp Temperatura Precipitaţii Vânt Presiune Umiditate
00:00 +34°C° 0 mm 7 m/s 750 mmHg 62%
01:00 +34°C° 0 mm 6 m/s 750 mmHg 63%
02:00 +34°C° 0 mm 6 m/s 749 mmHg 64%
03:00 +34°C° 0 mm 5 m/s 749 mmHg 65%
04:00 +33°C° 0 mm 5 m/s 749 mmHg 67%
05:00 +33°C° 0 mm 4 m/s 749 mmHg 69%
06:00 +33°C° 0 mm 4 m/s 749 mmHg 71%
07:00 +34°C° 0 mm 6 m/s 750 mmHg 63%
08:00 +37°C° 0 mm 8 m/s 750 mmHg 56%
09:00 +38°C° 0 mm 9 m/s 750 mmHg 49%
10:00 +38°C° 0 mm 9 m/s 750 mmHg 49%
11:00 +39°C° 0 mm 9 m/s 750 mmHg 48%
12:00 +39°C° 0 mm 9 m/s 749 mmHg 48%
13:00 +39°C° 0 mm 9 m/s 749 mmHg 50%
14:00 +39°C° 0 mm 9 m/s 749 mmHg 51%
15:00 +38°C° 0 mm 9 m/s 748 mmHg 53%
16:00 +38°C° 0 mm 9 m/s 748 mmHg 55%
17:00 +37°C° 0 mm 9 m/s 748 mmHg 57%
18:00 +35°C° 0 mm 9 m/s 748 mmHg 60%
19:00 +35°C° 0 mm 8 m/s 749 mmHg 62%
20:00 +35°C° 0 mm 8 m/s 749 mmHg 63%
21:00 +34°C° 0 mm 7 m/s 749 mmHg 65%
22:00 +34°C° 0 mm 6 m/s 749 mmHg 66%
23:00 +34°C° 0 mm 5 m/s 749 mmHg 66%

12 August, Miercuri

Timp Temperatura Precipitaţii Vânt Presiune Umiditate
00:00 +34°C° 0 mm 4 m/s 748 mmHg 67%
01:00 +34°C° 0 mm 3 m/s 748 mmHg 68%
02:00 +34°C° 0 mm 2 m/s 748 mmHg 68%
03:00 +33°C° 0 mm 1 m/s 747 mmHg 69%
04:00 +32°C° 0 mm 2 m/s 748 mmHg 71%
05:00 +32°C° 0 mm 2 m/s 748 mmHg 72%
06:00 +32°C° 0 mm 2 m/s 748 mmHg 74%
07:00 +34°C° 0 mm 2 m/s 749 mmHg 69%
08:00 +34°C° 0 mm 2 m/s 749 mmHg 65%
09:00 +35°C° 0 mm 2 m/s 749 mmHg 60%
10:00 +36°C° 0 mm 2 m/s 749 mmHg 55%
11:00 +38°C° 0 mm 3 m/s 749 mmHg 50%
12:00 +40°C° 0 mm 4 m/s 748 mmHg 45%
13:00 +40°C° 0 mm 4 m/s 748 mmHg 45%
14:00 +40°C° 0 mm 4 m/s 748 mmHg 45%
15:00 +40°C° 0 mm 4 m/s 747 mmHg 45%
16:00 +38°C° 0 mm 4 m/s 748 mmHg 47%
17:00 +37°C° 0 mm 4 m/s 748 mmHg 49%
18:00 +37°C° 0 mm 4 m/s 748 mmHg 51%
19:00 +36°C° 0 mm 4 m/s 748 mmHg 52%
20:00 +36°C° 0 mm 3 m/s 749 mmHg 54%
21:00 +36°C° 0 mm 3 m/s 749 mmHg 56%
22:00 +35°C° 0 mm 2 m/s 749 mmHg 56%
23:00 +34°C° 0 mm 1 m/s 749 mmHg 57%
Arată mai mult